When you browse on this site, cookies collect data to enhance your experience and personalize the content and advertising you see.
Visit our Privacy Policy to learn more. By continuing to use the site, you agree to this use of cookies and data.
  • In Romania
  • List of Countries
  • For 7 days
  • Water Temperature
  • Satellite Maps
  • Weather Map
  • Weather Widgets
  • user-avatar
    Login

    Hourly Weather Gniazdowice

    Today, 20 February, Wednesday

    Time Temperature Precipitation Wind Pressure Humidity
    00:00 +5°C° 0.4 mm 4 mps 741 mmHg 83%
    01:00 +5°C° 0.4 mm 5 mps 741 mmHg 85%
    02:00 +3°C° 0 mm 5 mps 742 mmHg 86%
    03:00 +3°C° 0 mm 5 mps 742 mmHg 88%
    04:00 +3°C° 0 mm 4 mps 742 mmHg 89%
    05:00 +2°C° 0 mm 5 mps 742 mmHg 88%
    06:00 +2°C° 0 mm 5 mps 742 mmHg 87%
    07:00 +2°C° 0 mm 5 mps 742 mmHg 86%
    08:00 +2°C° 0 mm 5 mps 743 mmHg 82%
    09:00 +3°C° 0 mm 6 mps 743 mmHg 78%
    10:00 +3°C° 0 mm 6 mps 744 mmHg 74%
    11:00 +4°C° 0 mm 6 mps 744 mmHg 72%
    12:00 +4°C° 0 mm 6 mps 744 mmHg 70%
    13:00 +4°C° 0 mm 6 mps 744 mmHg 68%
    14:00 +4°C° 0 mm 6 mps 744 mmHg 68%
    15:00 +4°C° 0 mm 6 mps 744 mmHg 69%
    16:00 +5°C° 0 mm 5 mps 744 mmHg 69%
    17:00 +5°C° 0 mm 5 mps 745 mmHg 72%
    18:00 +4°C° 0 mm 4 mps 745 mmHg 74%
    19:00 +4°C° 0 mm 3 mps 746 mmHg 77%
    20:00 +4°C° 0 mm 4 mps 746 mmHg 78%
    21:00 +4°C° 0 mm 4 mps 746 mmHg 78%
    22:00 +4°C° 0 mm 4 mps 746 mmHg 79%
    23:00 +3°C° 0 mm 4 mps 746 mmHg 79%

    Tomorrow, 21 February, Thursday

    Time Temperature Precipitation Wind Pressure Humidity
    00:00 +3°C° 0 mm 4 mps 747 mmHg 80%
    01:00 +3°C° 0 mm 4 mps 747 mmHg 81%
    02:00 +3°C° 0 mm 4 mps 747 mmHg 81%
    03:00 +3°C° 0 mm 4 mps 747 mmHg 82%
    04:00 +3°C° 0 mm 4 mps 747 mmHg 83%
    05:00 +3°C° 0 mm 4 mps 747 mmHg 82%
    06:00 +3°C° 0 mm 4 mps 747 mmHg 81%
    07:00 +3°C° 0 mm 4 mps 747 mmHg 80%
    08:00 +3°C° 0 mm 5 mps 747 mmHg 75%
    09:00 +5°C° 0 mm 5 mps 747 mmHg 70%
    10:00 +5°C° 0 mm 6 mps 747 mmHg 65%
    11:00 +5°C° 0.2 mm 6 mps 746 mmHg 65%
    12:00 +5°C° 0.2 mm 6 mps 746 mmHg 64%
    13:00 +5°C° 0.2 mm 6 mps 745 mmHg 64%
    14:00 +5°C° 0.6 mm 7 mps 745 mmHg 67%
    15:00 +5°C° 0.6 mm 7 mps 745 mmHg 70%
    16:00 +5°C° 0.6 mm 7 mps 744 mmHg 73%
    17:00 +5°C° 0.5 mm 7 mps 744 mmHg 74%
    18:00 +4°C° 0.5 mm 7 mps 744 mmHg 76%
    19:00 +4°C° 0.5 mm 7 mps 744 mmHg 78%
    20:00 +4°C° 0.4 mm 7 mps 744 mmHg 80%
    21:00 +4°C° 0.4 mm 7 mps 744 mmHg 81%
    22:00 +4°C° 0.4 mm 7 mps 744 mmHg 83%
    23:00 +4°C° 0.4 mm 6 mps 744 mmHg 85%

    Day after tomorrow, 22 February, Friday

    Time Temperature Precipitation Wind Pressure Humidity
    00:00 +4°C° 0.4 mm 6 mps 743 mmHg 87%
    01:00 +5°C° 0.4 mm 6 mps 743 mmHg 88%
    02:00 +5°C° 0.3 mm 6 mps 743 mmHg 89%
    03:00 +4°C° 0.3 mm 6 mps 743 mmHg 89%
    04:00 +4°C° 0.3 mm 6 mps 743 mmHg 89%
    05:00 +4°C° 0.9 mm 6 mps 744 mmHg 88%
    06:00 +4°C° 0.9 mm 7 mps 744 mmHg 87%
    07:00 +3°C° 0.9 mm 7 mps 745 mmHg 85%
    08:00 +2°C° 0.2 mm 7 mps 746 mmHg 82%
    09:00 0°C° 0.2 mm 7 mps 747 mmHg 78%
    10:00 -2°C° 0.2 mm 6 mps 748 mmHg 74%
    11:00 -1°C° 0 mm 6 mps 749 mmHg 68%
    12:00 -1°C° 0 mm 6 mps 750 mmHg 61%
    13:00 0°C° 0 mm 5 mps 751 mmHg 55%
    14:00 -1°C° 0 mm 5 mps 752 mmHg 54%
    15:00 -2°C° 0 mm 6 mps 752 mmHg 54%
    16:00 -3°C° 0 mm 6 mps 753 mmHg 53%
    17:00 -4°C° 0 mm 5 mps 753 mmHg 56%
    18:00 -4°C° 0 mm 5 mps 754 mmHg 58%
    19:00 -5°C° 0 mm 5 mps 755 mmHg 60%
    20:00 -6°C° 0 mm 5 mps 755 mmHg 58%
    21:00 -6°C° 0 mm 5 mps 756 mmHg 56%
    22:00 -5°C° 0 mm 4 mps 756 mmHg 54%
    23:00 -5°C° 0 mm 4 mps 757 mmHg 51%

    23 February, Saturday

    Time Temperature Precipitation Wind Pressure Humidity
    00:00 -7°C° 0 mm 4 mps 757 mmHg 49%
    01:00 -7°C° 0 mm 4 mps 758 mmHg 46%
    02:00 -6°C° 0 mm 3 mps 758 mmHg 45%
    03:00 -6°C° 0 mm 3 mps 758 mmHg 44%
    04:00 -6°C° 0 mm 3 mps 758 mmHg 43%
    05:00 -5°C° 0 mm 2 mps 758 mmHg 43%
    06:00 -5°C° 0 mm 2 mps 758 mmHg 42%
    07:00 -5°C° 0 mm 2 mps 758 mmHg 42%
    08:00 -4°C° 0 mm 2 mps 759 mmHg 38%
    09:00 -3°C° 0 mm 2 mps 759 mmHg 34%
    10:00 -2°C° 0 mm 3 mps 759 mmHg 30%
    11:00 -2°C° 0 mm 3 mps 759 mmHg 27%
    12:00 -1°C° 0 mm 3 mps 759 mmHg 25%
    13:00 +1°C° 0 mm 2 mps 758 mmHg 23%
    14:00 +1°C° 0 mm 2 mps 758 mmHg 24%
    15:00 +1°C° 0 mm 2 mps 758 mmHg 26%
    16:00 +1°C° 0 mm 2 mps 758 mmHg 28%
    17:00 -1°C° 0 mm 2 mps 758 mmHg 31%
    18:00 0°C° 0 mm 1 mps 758 mmHg 34%
    19:00 -1°C° 0 mm 1 mps 758 mmHg 37%
    20:00 -1°C° 0 mm 1 mps 758 mmHg 38%
    21:00 -1°C° 0 mm 1 mps 758 mmHg 38%
    22:00 -1°C° 0 mm 1 mps 758 mmHg 38%
    23:00 -1°C° 0 mm 1 mps 758 mmHg 38%

    24 February, Sunday

    Time Temperature Precipitation Wind Pressure Humidity
    00:00 -1°C° 0 mm 1 mps 757 mmHg 38%
    01:00 -3°C° 0 mm 2 mps 757 mmHg 38%
    02:00 -3°C° 0 mm 2 mps 757 mmHg 38%
    03:00 -3°C° 0 mm 2 mps 757 mmHg 38%
    04:00 -3°C° 0 mm 2 mps 756 mmHg 38%
    05:00 -3°C° 0 mm 2 mps 756 mmHg 36%
    06:00 -2°C° 0 mm 2 mps 756 mmHg 35%
    07:00 -2°C° 0 mm 2 mps 755 mmHg 34%
    08:00 -1°C° 0 mm 3 mps 755 mmHg 32%
    09:00 0°C° 0 mm 3 mps 755 mmHg 30%
    10:00 +1°C° 0 mm 3 mps 755 mmHg 28%
    11:00 +2°C° 0 mm 3 mps 754 mmHg 28%
    12:00 +3°C° 0 mm 4 mps 754 mmHg 28%
    13:00 +4°C° 0 mm 4 mps 754 mmHg 28%
    14:00 +4°C° 0 mm 3 mps 753 mmHg 33%
    15:00 +3°C° 0 mm 3 mps 753 mmHg 39%
    16:00 +4°C° 0 mm 2 mps 753 mmHg 45%
    17:00 +3°C° 0 mm 2 mps 753 mmHg 48%
    18:00 +2°C° 0 mm 2 mps 753 mmHg 52%
    19:00 +1°C° 0 mm 2 mps 753 mmHg 56%
    20:00 +1°C° 0 mm 2 mps 753 mmHg 58%
    21:00 +1°C° 0 mm 2 mps 753 mmHg 60%
    22:00 +2°C° 0 mm 1 mps 753 mmHg 62%
    23:00 +2°C° 0 mm 1 mps 753 mmHg 62%

    25 February, Monday

    Time Temperature Precipitation Wind Pressure Humidity
    00:00 +2°C° 0 mm 1 mps 753 mmHg 63%
    01:00 +2°C° 0 mm 1 mps 753 mmHg 64%
    02:00 +2°C° 0 mm 1 mps 753 mmHg 64%
    03:00 +2°C° 0 mm 1 mps 752 mmHg 65%
    04:00 +2°C° 0 mm 1 mps 752 mmHg 65%
    05:00 +1°C° 0 mm 2 mps 752 mmHg 66%
    06:00 +1°C° 0 mm 2 mps 752 mmHg 66%
    07:00 +1°C° 0 mm 2 mps 752 mmHg 67%
    08:00 +2°C° 0 mm 2 mps 752 mmHg 63%
    09:00 +2°C° 0 mm 3 mps 752 mmHg 59%
    10:00 +3°C° 0 mm 3 mps 752 mmHg 56%
    11:00 +4°C° 0 mm 3 mps 752 mmHg 55%
    12:00 +5°C° 0 mm 3 mps 752 mmHg 54%
    13:00 +7°C° 0 mm 3 mps 751 mmHg 53%
    14:00 +6°C° 0 mm 4 mps 751 mmHg 56%
    15:00 +6°C° 0 mm 4 mps 751 mmHg 59%
    16:00 +6°C° 0 mm 4 mps 751 mmHg 61%
    17:00 +5°C° 0 mm 3 mps 751 mmHg 69%
    18:00 +4°C° 0 mm 3 mps 752 mmHg 76%
    19:00 +3°C° 0 mm 3 mps 752 mmHg 83%
    20:00 +2°C° 0 mm 3 mps 752 mmHg 87%
    21:00 +2°C° 0 mm 3 mps 752 mmHg 90%
    22:00 +2°C° 0 mm 2 mps 752 mmHg 93%
    23:00 +2°C° 0 mm 2 mps 752 mmHg 93%
    Show more